"startDT [UTC]","vpos","CH4 [ppm]","stdev(CH4) [ppm]","CO2 [ppm]","stdev(CO2) [ppm]","H2O_reported [%]","stdev(H2O_reported)","CavityPressure [torr]","CavityTemp [C]","OutletValve","CH4_dry [ppm]","CO2_dry [ppm]","DasTemp [C]","EtalonTemp [C]","WarmBoxTemp [C]","MPVPosition","T_ECpre [C]","T_EC1 [C]","T_EC2 [C]","p_inlet [hPa]","p_in [hPa]","p_out [hPa]","T_inlet [C]","RH_inlet [%]","dwpt_inlet [C]","T_vent [C]","RH_vent [%]","dwpt_vent [C]","flow_vent [l min-1]","flow_inlet [l min-1]","dwpt_sample [C]","T_room [C]"
2015-07-19 00:00:00,3.0,1.89129,0.04350,394.420,5.955,0.2787,0.4378,139.931,45.000,31060.84934,1.90495,395.567,34.063,45.068,45.000,0.00,0.10,-272.73,-272.80,-1,460,-7,24.8,30.3,6.2,24.5,29.6,5.6,5.73,1.72,2.4,28.4
2015-07-19 00:01:00,3.0,1.87528,0.00062,396.750,0.034,0.0432,0.0021,140.000,45.000,30960.61143,1.87600,396.957,34.062,45.068,45.000,0.00,0.10,-272.74,-272.80,-4,461,-7,24.8,30.1,6.1,24.5,30.7,6.1,5.73,1.85,2.4,28.4
2015-07-19 00:02:00,3.0,1.87529,0.00054,396.968,0.098,0.0366,0.0031,140.002,45.000,30939.11676,1.87600,397.137,34.063,45.068,45.000,0.00,0.10,-272.74,-272.80,-5,461,-7,24.8,30.0,6.0,24.5,30.9,6.2,5.73,1.91,2.4,28.4
2015-07-19 00:03:00,3.0,1.87544,0.00040,397.246,0.061,0.0301,0.0027,139.999,45.000,30918.77006,1.87600,397.386,34.063,45.068,45.000,0.00,0.10,-272.73,-272.80,-6,461,-7,24.8,30.0,6.0,24.5,30.9,6.2,5.73,1.91,2.3,28.4
2015-07-19 00:04:00,3.0,1.87573,0.00056,397.357,0.030,0.0224,0.0031,139.998,45.000,30904.00085,1.87610,397.463,34.062,45.068,45.000,0.00,0.10,-272.74,-272.81,-6,461,-7,24.8,30.0,6.0,24.5,30.9,6.2,5.73,1.87,2.4,28.5
2015-07-19 00:05:00,3.0,1.87566,0.00041,397.398,0.020,0.0184,0.0018,139.995,45.000,30892.41395,1.87601,397.486,34.062,45.068,45.000,0.00,0.10,-272.74,-272.80,-6,461,-7,24.8,29.9,6.0,24.5,30.9,6.2,5.73,1.84,2.4,28.4
2015-07-19 00:06:00,3.0,1.87577,0.00043,397.428,0.022,0.0143,0.0016,140.000,45.000,30885.29225,1.87603,397.496,34.063,45.068,45.000,0.00,0.10,-272.73,-272.80,-6,462,-7,24.8,29.9,6.0,24.5,30.8,6.2,5.73,1.82,2.4,28.5
2015-07-19 00:07:00,3.0,1.87594,0.00029,397.442,0.020,0.0120,0.0016,139.998,45.000,30875.81589,1.87615,397.500,34.063,45.068,45.000,0.00,0.10,-272.74,-272.80,-6,462,-7,24.8,29.9,6.0,24.5,30.8,6.2,5.73,1.84,2.4,28.5
2015-07-19 00:08:00,3.0,1.87616,0.00048,397.474,0.047,0.0098,0.0018,139.997,45.000,30868.72165,1.87637,397.519,34.061,45.068,45.000,0.00,0.10,-272.75,-272.80,-6,462,-7,24.8,29.9,6.0,24.5,30.8,6.2,5.73,1.85,2.4,28.5
2015-07-19 00:09:00,3.0,1.87577,0.00057,397.490,0.032,0.0083,0.0011,140.000,45.000,30867.53631,1.87588,397.533,34.063,45.068,45.000,0.00,0.10,-272.73,-272.80,-6,463,-7,24.8,29.9,6.0,24.5,30.9,6.2,5.73,1.88,2.4,28.5
2015-07-19 00:10:00,3.0,1.87559,0.00040,397.474,0.028,0.0075,0.0022,140.000,45.000,30865.72145,1.87577,397.508,34.063,45.068,45.000,0.00,0.10,-272.73,-272.80,-6,463,-7,24.8,29.9,6.0,24.5,30.9,6.2,5.73,1.90,2.4,28.5
2015-07-19 00:11:00,3.0,1.87593,0.00043,397.466,0.020,0.0070,0.0018,139.997,45.000,30860.60815,1.87602,397.500,34.045,45.068,45.000,0.00,0.10,-272.74,-272.80,-7,463,-7,24.8,29.9,6.0,24.6,30.9,6.2,5.73,1.90,2.4,28.5
2015-07-19 00:12:00,3.0,1.87612,0.00045,397.501,0.029,0.0057,0.0018,139.999,45.000,30859.56079,1.87622,397.528,34.017,45.068,45.000,0.00,0.10,-272.74,-272.80,-6,464,-7,24.9,29.9,6.1,24.6,30.9,6.3,5.73,1.90,2.4,28.5
2015-07-19 00:13:00,3.0,1.87592,0.00048,397.500,0.019,0.0046,0.0017,139.999,45.000,30859.32555,1.87605,397.521,34.025,45.068,45.000,0.00,0.10,-272.73,-272.79,-7,464,-7,24.9,29.9,6.1,24.6,30.9,6.3,5.73,1.88,2.4,28.6
2015-07-19 00:14:00,3.0,1.87590,0.00032,397.497,0.031,0.0053,0.0022,140.000,45.000,30861.58993,1.87598,397.523,34.049,45.068,45.000,0.00,0.10,-272.74,-272.80,-6,464,-7,24.9,30.0,6.1,24.6,30.9,6.3,5.73,1.87,2.4,28.5
2015-07-19 00:15:00,3.0,1.87630,0.00024,397.507,0.030,0.0045,0.0020,140.001,45.000,30860.10067,1.87638,397.528,34.062,45.068,45.000,0.00,0.10,-272.74,-272.81,-6,465,-7,24.9,30.0,6.1,24.6,30.9,6.3,5.73,1.86,2.4,28.6
2015-07-19 00:16:00,3.0,1.87609,0.00045,397.507,0.022,0.0049,0.0024,139.999,45.000,30859.28154,1.87619,397.530,34.072,45.068,45.000,0.00,0.10,-272.73,-272.80,-7,465,-7,24.9,30.0,6.1,24.6,31.0,6.3,5.73,1.85,2.4,28.5
2015-07-19 00:17:00,3.0,1.87601,0.00045,397.529,0.034,0.0035,0.0016,139.999,45.000,30859.52756,1.87610,397.544,34.098,45.068,45.000,0.00,0.10,-272.73,-272.80,-6,465,-7,24.9,30.1,6.1,24.6,31.0,6.3,5.73,1.84,2.4,28.5
2015-07-19 00:18:00,3.0,1.87592,0.00046,397.509,0.028,0.0042,0.0016,140.003,45.000,30863.11749,1.87598,397.531,34.077,45.067,45.000,0.00,0.10,-272.74,-272.81,-7,466,-7,24.9,30.1,6.1,24.6,31.0,6.3,5.73,1.84,2.4,28.5
2015-07-19 00:19:00,3.0,1.87611,0.00041,397.519,0.023,0.0034,0.0021,140.006,45.000,30865.66472,1.87617,397.535,34.081,45.067,45.000,0.00,0.10,-272.73,-272.80,-7,466,-7,24.8,30.1,6.1,24.6,31.0,6.3,5.73,1.86,2.4,28.6
2015-07-19 00:20:00,0.0,2.00717,0.04518,383.774,5.565,1.0067,0.3843,140.197,45.000,33682.69221,2.01960,388.768,34.092,45.067,45.000,0.00,0.10,-272.73,-272.79,-7,982,-7,24.9,30.1,6.1,24.6,31.0,6.4,5.73,1.89,2.4,28.6
2015-07-19 00:21:00,0.0,2.02356,0.00087,380.907,0.059,1.1892,0.0030,140.003,45.000,33887.37847,2.04828,386.574,34.106,45.068,45.000,0.00,0.10,-272.74,-272.80,-7,983,-7,24.9,30.0,6.1,24.6,31.0,6.3,5.73,1.94,2.4,28.6
2015-07-19 00:22:00,0.0,2.02331,0.00057,380.794,0.069,1.1956,0.0020,140.011,45.000,33951.14669,2.04804,386.491,34.113,45.067,45.000,0.00,0.10,-272.74,-272.80,-7,984,-7,24.9,30.0,6.1,24.6,30.9,6.3,5.73,1.94,2.4,28.7
2015-07-19 00:23:00,0.0,2.02243,0.00064,380.711,0.035,1.2001,0.0023,140.007,45.000,33997.46156,2.04728,386.420,34.084,45.067,45.000,0.00,0.10,-272.74,-272.80,-7,984,-7,24.9,30.0,6.1,24.6,30.9,6.3,5.73,1.91,2.4,28.6
2015-07-19 00:24:00,0.0,2.02185,0.00062,380.597,0.102,1.2042,0.0021,140.004,45.000,34034.39117,2.04682,386.336,34.067,45.067,45.000,0.00,0.10,-272.74,-272.80,-7,986,-7,24.9,30.1,6.2,24.6,31.0,6.4,5.73,1.86,2.4,28.6
2015-07-19 00:25:00,0.0,2.02230,0.00075,380.522,0.048,1.2064,0.0019,140.001,45.000,34066.69026,2.04718,386.261,34.068,45.068,45.000,0.00,0.10,-272.74,-272.81,-7,986,-7,24.9,30.1,6.2,24.6,31.0,6.4,5.73,1.84,2.4,28.6
2015-07-19 00:26:00,0.0,2.02242,0.00103,380.640,0.085,1.2066,0.0017,140.002,45.000,34092.70223,2.04745,386.384,34.073,45.068,45.000,0.00,0.10,-272.73,-272.79,-7,986,-7,24.9,30.1,6.2,24.6,31.0,6.4,5.73,1.87,2.4,28.6
2015-07-19 00:27:00,0.0,2.02081,0.00066,380.533,0.055,1.2082,0.0021,139.999,45.000,34115.62797,2.04579,386.286,34.095,45.068,45.000,0.00,0.10,-272.73,-272.79,-7,985,-7,24.9,30.2,6.2,24.7,31.0,6.4,5.73,1.91,2.4,28.6
2015-07-19 00:28:00,0.0,2.02094,0.00071,380.349,0.081,1.2096,0.0022,140.002,45.000,34136.48710,2.04592,386.107,34.077,45.068,45.000,0.00,0.10,-272.74,-272.80,-7,985,-7,24.9,30.2,6.2,24.7,31.1,6.4,5.73,1.94,2.4,28.6
2015-07-19 00:29:00,0.0,2.02211,0.00048,380.422,0.082,1.2120,0.0018,139.999,45.000,34151.27106,2.04718,386.189,34.105,45.068,45.000,0.00,0.10,-272.74,-272.80,-7,986,-7,24.9,30.2,6.2,24.7,31.1,6.4,5.73,1.93,2.4,28.6
2015-07-19 00:30:00,0.0,2.02168,0.00082,380.320,0.089,1.2126,0.0017,139.999,45.000,34164.59073,2.04678,386.090,34.116,45.068,45.000,0.00,0.10,-272.73,-272.80,-7,987,-7,24.9,30.3,6.3,24.7,31.1,6.5,5.73,1.90,2.4,28.6
2015-07-19 00:31:00,0.0,2.02125,0.00066,380.416,0.068,1.2140,0.0018,140.003,45.000,34179.74502,2.04647,386.196,34.114,45.068,45.000,0.00,0.10,-272.73,-272.80,-7,987,-7,24.9,30.3,6.2,24.7,31.1,6.5,5.73,1.87,2.4,28.5
2015-07-19 00:32:00,0.0,2.02101,0.00078,380.397,0.169,1.2137,0.0019,140.000,45.000,34187.32064,2.04605,386.168,34.111,45.068,45.000,0.00,0.10,-272.74,-272.80,-7,986,-7,24.9,30.2,6.2,24.7,31.1,6.4,5.73,1.85,2.4,28.6
2015-07-19 00:33:00,0.0,2.02112,0.00098,380.336,0.158,1.2116,0.0024,140.004,45.000,34198.41867,2.04620,386.104,34.083,45.068,45.000,0.00,0.10,-272.73,-272.80,-7,987,-7,24.9,30.2,6.2,24.7,31.1,6.4,5.73,1.87,2.4,28.5
2015-07-19 00:34:00,0.0,2.02155,0.00068,380.357,0.092,1.2116,0.0020,140.001,45.000,34204.92742,2.04658,386.119,34.113,45.068,45.000,0.00,0.10,-272.74,-272.80,-7,987,-7,24.9,30.2,6.2,24.7,31.0,6.4,5.73,1.90,2.4,28.6
2015-07-19 00:35:00,0.0,2.02192,0.00080,380.306,0.169,1.2111,0.0014,140.001,45.000,34212.50641,2.04698,386.078,34.124,45.068,45.000,0.00,0.10,-272.74,-272.80,-7,988,-7,24.9,30.2,6.2,24.7,31.0,6.4,5.73,1.92,2.4,28.6
2015-07-19 00:36:00,0.0,2.02215,0.00036,380.333,0.104,1.2104,0.0024,139.996,45.000,34218.01681,2.04716,386.081,34.123,45.068,45.000,0.00,0.10,-272.74,-272.80,-7,988,-7,24.9,30.1,6.2,24.7,31.0,6.4,5.73,1.93,2.4,28.6
2015-07-19 00:37:00,0.0,2.02201,0.00056,380.472,0.089,1.2100,0.0018,140.001,45.000,34224.43787,2.04708,386.237,34.092,45.068,45.000,0.00,0.10,-272.74,-272.79,-7,987,-7,24.9,30.1,6.2,24.7,31.0,6.4,5.73,1.93,2.4,28.6
2015-07-19 00:38:00,0.0,2.02217,0.00068,380.428,0.042,1.2074,0.0022,140.001,45.000,34228.05053,2.04711,386.174,34.101,45.068,45.000,0.00,0.10,-272.74,-272.80,-7,988,-7,24.9,30.0,6.1,24.7,30.9,6.4,5.73,1.89,2.4,28.5
2015-07-19 00:39:00,0.0,2.02157,0.00076,380.318,0.043,1.2058,0.0022,140.001,45.000,34233.68825,2.04660,386.054,34.080,45.068,45.000,0.00,0.10,-272.74,-272.80,-8,989,-7,24.9,30.0,6.1,24.7,30.9,6.3,5.73,1.87,2.4,28.5
2015-07-19 00:40:00,0.0,2.02197,0.00067,380.439,0.160,1.2041,0.0018,139.996,45.000,34232.69934,2.04684,386.162,34.076,45.068,45.000,0.00,0.10,-272.73,-272.80,-7,988,-7,24.9,30.0,6.1,24.7,30.8,6.3,5.73,1.86,2.4,28.5
2015-07-19 00:41:00,0.0,2.02250,0.00048,380.568,0.104,1.2041,0.0024,140.001,45.000,34239.84040,2.04742,386.301,34.064,45.068,45.000,0.00,0.10,-272.73,-272.80,-7,988,-7,24.9,30.0,6.1,24.7,30.8,6.3,5.73,1.87,2.4,28.6
2015-07-19 00:42:00,0.0,2.02242,0.00044,380.628,0.036,1.2046,0.0017,139.998,45.000,34242.56624,2.04735,386.361,34.063,45.068,45.000,0.00,0.10,-272.74,-272.80,-8,988,-7,24.9,30.0,6.1,24.6,30.8,6.3,5.73,1.87,2.4,28.6
2015-07-19 00:43:00,0.0,2.02290,0.00056,380.698,0.059,1.2026,0.0021,139.993,45.000,34241.61487,2.04776,386.425,34.070,45.068,45.000,0.00,0.10,-272.73,-272.80,-7,989,-7,24.9,29.9,6.1,24.7,30.8,6.3,5.73,1.91,2.4,28.6
2015-07-19 00:44:00,0.0,2.02246,0.00052,380.514,0.075,1.2003,0.0017,140.002,45.000,34246.96110,2.04734,386.231,34.063,45.068,45.000,0.00,0.10,-272.73,-272.80,-7,988,-7,24.9,29.9,6.1,24.7,30.7,6.2,5.73,1.92,2.4,28.6
2015-07-19 00:45:00,0.0,2.02227,0.00038,380.523,0.064,1.2011,0.0019,140.004,45.000,34249.49547,2.04707,386.238,34.063,45.068,45.000,0.00,0.10,-272.74,-272.81,-8,988,-7,24.9,29.9,6.0,24.7,30.7,6.3,5.73,1.92,2.4,28.6
2015-07-19 00:46:00,0.0,2.02289,0.00061,380.635,0.057,1.2013,0.0014,140.003,45.000,34250.16764,2.04780,386.352,34.064,45.068,45.000,0.00,0.10,-272.74,-272.80,-8,989,-7,24.9,29.9,6.0,24.7,30.7,6.2,5.73,1.92,2.4,28.6
2015-07-19 00:47:00,0.0,2.02245,0.00052,380.532,0.055,1.2027,0.0017,140.000,45.000,34250.37056,2.04731,386.259,34.067,45.068,45.000,0.00,0.10,-272.74,-272.80,-7,989,-7,24.9,29.9,6.0,24.6,30.7,6.2,5.73,1.90,2.4,28.5
2015-07-19 00:48:00,0.0,2.02253,0.00071,380.490,0.040,1.2040,0.0013,140.004,45.000,34251.78050,2.04746,386.218,34.081,45.068,45.000,0.00,0.10,-272.74,-272.80,-7,988,-7,24.9,29.9,6.1,24.7,30.8,6.3,5.73,1.87,2.4,28.5
2015-07-19 00:49:00,0.0,2.02253,0.00029,380.534,0.030,1.2041,0.0025,140.001,45.000,34252.71289,2.04743,386.267,34.088,45.068,45.000,0.00,0.10,-272.74,-272.80,-8,989,-7,24.9,29.9,6.1,24.7,30.8,6.3,5.73,1.86,2.4,28.5
2015-07-19 00:50:00,0.0,2.02313,0.00059,380.449,0.054,1.2040,0.0020,139.999,45.000,34257.01731,2.04803,386.178,34.068,45.068,45.000,0.00,0.10,-272.73,-272.79,-7,989,-7,24.9,29.9,6.1,24.6,30.8,6.3,5.73,1.86,2.4,28.5
2015-07-19 00:51:00,0.0,2.02311,0.00036,380.467,0.038,1.2037,0.0016,140.002,45.000,34259.28460,2.04804,386.197,34.063,45.068,45.000,0.00,0.10,-272.74,-272.79,-7,989,-7,24.9,29.9,6.1,24.6,30.8,6.3,5.73,1.87,2.4,28.6
2015-07-19 00:52:00,0.0,2.02359,0.00061,380.405,0.082,1.2048,0.0019,140.001,45.000,34258.29380,2.04848,386.139,34.059,45.068,45.000,0.00,0.10,-272.74,-272.80,-8,989,-7,24.9,30.0,6.1,24.6,30.8,6.3,5.73,1.89,2.4,28.6
2015-07-19 00:53:00,0.0,2.02393,0.00068,380.440,0.072,1.2077,0.0029,140.001,45.000,34258.02165,2.04898,386.187,34.054,45.068,45.000,0.00,0.10,-272.73,-272.79,-7,990,-7,24.9,30.1,6.1,24.6,30.9,6.3,5.73,1.91,2.4,28.5
2015-07-19 00:54:00,0.0,2.02385,0.00063,380.372,0.049,1.2129,0.0021,140.001,45.000,34261.81685,2.04897,386.145,34.051,45.068,45.000,0.00,0.10,-272.73,-272.80,-7,989,-7,24.9,30.2,6.2,24.7,31.0,6.4,5.73,1.92,2.4,28.5
2015-07-19 00:55:00,0.0,2.02378,0.00053,380.319,0.032,1.2120,0.0025,139.999,45.000,34259.50166,2.04891,386.086,34.058,45.068,45.000,0.00,0.10,-272.74,-272.80,-8,990,-7,24.9,30.2,6.2,24.6,31.0,6.4,5.73,1.92,2.4,28.5
2015-07-19 00:56:00,0.0,2.02437,0.00060,380.282,0.036,1.2134,0.0022,140.006,45.000,34261.74276,2.04945,386.058,34.059,45.068,45.000,0.00,0.10,-272.74,-272.80,-7,990,-7,24.9,30.2,6.2,24.6,31.0,6.4,5.73,1.91,2.4,28.5
2015-07-19 00:57:00,0.0,2.02407,0.00048,380.241,0.114,1.2148,0.0015,139.999,45.000,34258.64858,2.04924,386.017,34.058,45.068,45.000,0.00,0.10,-272.73,-272.80,-7,989,-7,24.9,30.2,6.2,24.6,31.1,6.4,5.73,1.89,2.4,28.5
2015-07-19 00:58:00,0.0,2.02337,0.00047,380.356,0.052,1.2138,0.0023,140.000,45.000,34259.08962,2.04858,386.133,34.031,45.068,45.000,0.00,0.10,-272.74,-272.81,-8,990,-7,24.9,30.2,6.2,24.6,31.1,6.4,5.73,1.88,2.4,28.6
2015-07-19 00:59:00,0.0,2.02355,0.00054,380.288,0.035,1.2149,0.0017,139.996,45.000,34259.63978,2.04866,386.071,34.020,45.068,45.000,0.00,0.10,-272.74,-272.81,-7,990,-7,24.9,30.2,6.2,24.6,31.1,6.4,5.73,1.86,2.4,28.6
2015-07-19 01:00:00,0.0,2.02346,0.00046,380.264,0.048,1.2176,0.0023,140.005,45.000,34263.60809,2.04870,386.057,34.003,45.068,45.000,0.00,0.10,-272.73,-272.80,-8,990,-7,24.9,30.3,6.2,24.6,31.1,6.4,5.73,1.87,2.4,28.5
2015-07-19 01:01:00,0.0,2.02380,0.00058,380.098,0.129,1.2178,0.0020,140.005,45.000,34265.00933,2.04902,385.891,34.015,45.068,45.000,0.00,0.10,-272.74,-272.79,-8,991,-7,24.9,30.3,6.2,24.7,31.1,6.4,5.73,1.87,2.4,28.5
2015-07-19 01:02:00,0.0,2.02444,0.00056,380.085,0.097,1.2206,0.0022,139.996,45.000,34260.66310,2.04973,385.893,34.010,45.068,45.000,0.00,0.10,-272.74,-272.80,-7,990,-7,24.9,30.4,6.3,24.6,31.2,6.5,5.73,1.88,2.4,28.5
2015-07-19 01:03:00,0.0,2.02425,0.00050,380.098,0.068,1.2233,0.0014,140.004,45.000,34265.73073,2.04958,385.918,34.044,45.068,45.000,0.00,0.10,-272.74,-272.80,-8,990,-7,24.9,30.4,6.3,24.6,31.2,6.5,5.73,1.89,2.4,28.5
2015-07-19 01:04:00,0.0,2.02435,0.00064,380.046,0.089,1.2242,0.0031,140.001,45.000,34266.80424,2.04979,385.865,34.063,45.068,45.000,0.00,0.10,-272.73,-272.80,-8,991,-7,24.9,30.5,6.3,24.6,31.3,6.5,5.73,1.91,2.4,28.5
2015-07-19 01:05:00,0.0,2.02383,0.00043,380.058,0.102,1.2250,0.0017,140.002,45.000,34264.60060,2.04919,385.892,34.063,45.067,45.000,0.00,0.10,-272.74,-272.80,-7,990,-7,24.9,30.5,6.3,24.6,31.3,6.5,5.73,1.92,2.4,28.5
2015-07-19 01:06:00,0.0,2.02406,0.00042,380.113,0.253,1.2254,0.0026,139.995,45.000,34264.27603,2.04942,385.939,34.074,45.067,45.000,0.00,0.10,-272.74,-272.80,-8,991,-7,24.9,30.5,6.3,24.6,31.3,6.5,5.73,1.91,2.4,28.5
2015-07-19 01:07:00,0.0,2.02469,0.00046,380.082,0.185,1.2233,0.0019,140.003,45.000,34264.45052,2.05004,385.906,34.075,45.067,45.000,0.00,0.10,-272.73,-272.79,-7,990,-7,24.9,30.5,6.3,24.6,31.3,6.5,5.73,1.91,2.4,28.5
2015-07-19 01:08:00,0.0,2.02469,0.00064,379.950,0.029,1.2271,0.0021,140.000,45.000,34263.48133,2.05011,385.786,34.070,45.067,45.000,0.00,0.10,-272.74,-272.80,-8,990,-7,24.9,30.6,6.4,24.6,31.4,6.5,5.73,1.90,2.4,28.5
2015-07-19 01:09:00,0.0,2.02396,0.00039,379.874,0.098,1.2317,0.0022,140.001,45.000,34265.22783,2.04955,385.739,34.064,45.067,45.000,0.00,0.10,-272.74,-272.81,-8,991,-7,24.8,30.7,6.4,24.6,31.5,6.6,5.73,1.88,2.4,28.5
2015-07-19 01:10:00,0.0,2.02393,0.00066,379.709,0.096,1.2346,0.0024,140.003,45.000,34268.63732,2.04947,385.573,34.064,45.068,45.000,0.00,0.10,-272.72,-272.80,-8,990,-7,24.9,30.8,6.5,24.6,31.6,6.6,5.73,1.88,2.4,28.5
2015-07-19 01:11:00,0.0,2.02494,0.00055,379.809,0.077,1.2374,0.0021,139.999,45.000,34265.68098,2.05063,385.696,34.063,45.068,45.000,0.00,0.10,-272.73,-272.80,-8,991,-7,24.8,30.9,6.5,24.6,31.7,6.6,5.73,1.86,2.4,28.5
2015-07-19 01:12:00,0.0,2.02403,0.00042,379.589,0.150,1.2413,0.0025,139.994,45.000,34265.26185,2.04979,385.488,34.064,45.068,45.000,0.00,0.10,-272.74,-272.80,-7,991,-7,24.8,30.9,6.5,24.6,31.8,6.7,5.73,1.87,2.4,28.4
2015-07-19 01:13:00,0.0,2.02418,0.00042,379.667,0.056,1.2432,0.0025,140.003,45.000,34268.81441,2.04997,385.580,34.063,45.068,45.000,0.00,0.10,-272.73,-272.80,-8,990,-7,24.9,31.0,6.6,24.6,31.8,6.7,5.73,1.87,2.4,28.4
2015-07-19 01:14:00,0.0,2.02436,0.00069,379.484,0.135,1.2452,0.0030,140.003,45.000,34269.02174,2.05013,385.404,34.064,45.068,45.000,0.00,0.10,-272.74,-272.80,-8,991,-7,24.9,31.1,6.6,24.6,31.9,6.7,5.73,1.89,2.4,28.5
2015-07-19 01:15:00,0.0,2.02416,0.00064,379.559,0.045,1.2466,0.0022,139.998,45.000,34265.97174,2.05007,385.485,34.063,45.068,45.000,0.00,0.10,-272.74,-272.80,-8,990,-7,24.8,31.1,6.6,24.6,31.9,6.8,5.73,1.90,2.4,28.4
2015-07-19 01:16:00,0.0,2.02396,0.00061,379.447,0.071,1.2470,0.0023,140.006,45.000,34267.42133,2.04983,385.378,34.059,45.068,45.000,0.00,0.10,-272.74,-272.80,-8,991,-7,24.8,31.1,6.6,24.6,32.0,6.8,5.73,1.90,2.4,28.4
2015-07-19 01:17:00,0.0,2.02362,0.00062,379.490,0.039,1.2487,0.0021,140.001,45.000,34268.72059,2.04954,385.426,34.040,45.068,45.000,0.00,0.10,-272.73,-272.79,-7,991,-7,24.8,31.1,6.6,24.6,32.0,6.8,5.73,1.92,2.4,28.4
2015-07-19 01:18:00,0.0,2.02335,0.00055,379.391,0.079,1.2488,0.0016,140.000,45.000,34268.89990,2.04924,385.331,34.010,45.068,45.000,0.00,0.10,-272.74,-272.80,-8,991,-7,24.8,31.1,6.6,24.6,32.0,6.8,5.73,1.91,2.4,28.4
2015-07-19 01:19:00,0.0,2.02312,0.00049,379.239,0.141,1.2481,0.0018,140.004,45.000,34270.72396,2.04901,385.165,34.007,45.068,45.000,0.00,0.10,-272.74,-272.80,-8,991,-7,24.8,31.1,6.6,24.6,32.0,6.8,5.73,1.91,2.4,28.4
2015-07-19 01:20:00,0.0,2.02278,0.00078,379.171,0.152,1.2472,0.0018,139.998,45.000,34268.67576,2.04872,385.101,34.001,45.068,45.000,0.00,0.10,-272.73,-272.80,-8,990,-7,24.8,31.1,6.6,24.6,31.9,6.8,5.73,1.90,2.4,28.4
2015-07-19 01:21:00,0.0,2.02298,0.00072,379.372,0.110,1.2459,0.0019,140.004,45.000,34272.32592,2.04881,385.293,34.001,45.068,45.000,0.00,0.10,-272.73,-272.80,-8,991,-7,24.8,31.1,6.6,24.6,31.9,6.8,5.73,1.89,2.4,28.4
2015-07-19 01:22:00,0.0,2.02293,0.00066,379.295,0.091,1.2475,0.0024,140.002,45.000,34270.38661,2.04870,385.217,34.003,45.068,45.000,0.00,0.10,-272.73,-272.80,-7,990,-7,24.8,31.1,6.6,24.6,32.0,6.8,5.73,1.88,2.4,28.4
2015-07-19 01:23:00,0.0,2.02290,0.00052,379.469,0.044,1.2475,0.0014,139.998,45.000,34268.72700,2.04875,385.396,34.002,45.068,45.000,0.00,0.10,-272.73,-272.80,-8,991,-7,24.8,31.1,6.6,24.6,31.9,6.8,5.73,1.86,2.4,28.4
2015-07-19 01:24:00,0.0,2.02267,0.00056,379.427,0.055,1.2472,0.0025,140.003,45.000,34270.76857,2.04855,385.358,34.002,45.068,45.000,0.00,0.10,-272.74,-272.80,-8,991,-7,24.8,31.1,6.6,24.6,32.0,6.8,5.73,1.87,2.4,28.3
2015-07-19 01:25:00,0.0,2.02359,0.00071,379.274,0.069,1.2492,0.0022,140.001,45.000,34272.59050,2.04946,385.209,34.003,45.068,45.000,0.00,0.10,-272.74,-272.80,-8,991,-7,24.8,31.2,6.6,24.6,32.0,6.8,5.73,1.87,2.4,28.4
2015-07-19 01:26:00,0.0,2.02238,0.00047,379.290,0.041,1.2497,0.0019,140.004,45.000,34274.37494,2.04839,385.231,34.038,45.068,45.000,0.00,0.10,-272.73,-272.80,-8,991,-7,24.8,31.2,6.6,24.6,32.0,6.8,5.73,1.87,2.4,28.4
2015-07-19 01:27:00,0.0,2.02169,0.00052,379.100,0.074,1.2529,0.0020,140.008,45.000,34274.01553,2.04765,385.049,34.051,45.067,45.000,0.00,0.10,-272.73,-272.80,-8,991,-7,24.8,31.3,6.6,24.6,32.1,6.9,5.73,1.89,2.4,28.5
2015-07-19 01:28:00,0.0,2.02218,0.00064,379.182,0.124,1.2529,0.0014,140.000,45.000,34273.26516,2.04813,385.132,34.063,45.067,45.000,0.00,0.10,-272.74,-272.80,-8,992,-7,24.8,31.2,6.6,24.6,32.1,6.8,5.73,1.89,2.4,28.4
2015-07-19 01:29:00,0.0,2.02143,0.00055,379.218,0.083,1.2486,0.0026,140.002,45.000,34272.06826,2.04730,385.150,34.063,45.067,45.000,0.00,0.10,-272.74,-272.80,-8,991,-7,24.8,31.1,6.6,24.6,32.0,6.8,5.73,1.90,2.4,28.5
2015-07-19 01:30:00,0.0,2.02196,0.00057,379.205,0.110,1.2459,0.0024,140.004,45.000,34273.47712,2.04782,385.131,34.062,45.067,45.000,0.00,0.10,-272.74,-272.80,-8,991,-7,24.8,31.1,6.5,24.6,31.9,6.8,5.73,1.90,2.4,28.4
2015-07-19 01:31:00,0.0,2.02187,0.00036,379.108,0.118,1.2449,0.0017,140.001,45.000,34271.17583,2.04762,385.012,34.071,45.067,45.000,0.00,0.10,-272.73,-272.80,-8,991,-7,24.8,31.0,6.6,24.6,31.9,6.8,5.73,1.91,2.4,28.4
2015-07-19 01:32:00,0.0,2.02162,0.00059,379.219,0.128,1.2432,0.0017,140.000,45.000,34270.52906,2.04742,385.129,34.089,45.067,45.000,0.00,0.10,-272.74,-272.80,-8,992,-7,24.8,31.0,6.5,24.6,31.9,6.7,5.73,1.91,2.4,28.4
2015-07-19 01:33:00,0.0,2.02221,0.00071,379.114,0.072,1.2486,0.0019,140.001,45.000,34273.73972,2.04801,385.037,34.109,45.067,45.000,0.00,0.10,-272.74,-272.80,-8,991,-7,24.8,31.1,6.6,24.6,32.0,6.8,5.73,1.91,2.4,28.4
2015-07-19 01:34:00,0.0,2.02204,0.00076,379.212,0.071,1.2478,0.0023,140.001,45.000,34274.90195,2.04794,385.143,34.101,45.067,44.999,0.00,0.10,-272.73,-272.79,-8,992,-7,24.8,31.1,6.6,24.6,32.0,6.8,5.73,1.90,2.4,28.4
2015-07-19 01:35:00,0.0,2.02189,0.00061,379.237,0.077,1.2469,0.0022,140.000,45.000,34275.76130,2.04770,385.157,34.113,45.067,45.000,0.00,0.10,-272.74,-272.80,-8,992,-7,24.8,31.1,6.6,24.6,32.0,6.8,5.73,1.89,2.4,28.5
2015-07-19 01:36:00,0.0,2.02273,0.00065,379.158,0.102,1.2458,0.0020,140.000,45.000,34276.17041,2.04854,385.072,34.126,45.067,45.000,0.00,0.10,-272.74,-272.81,-8,991,-7,24.8,31.1,6.6,24.6,32.0,6.8,5.73,1.88,2.4,28.5
2015-07-19 01:37:00,0.0,2.02280,0.00060,379.192,0.099,1.2446,0.0014,140.002,45.000,34275.15754,2.04860,385.108,34.137,45.067,45.000,0.00,0.10,-272.73,-272.80,-8,992,-7,24.8,31.0,6.5,24.6,31.9,6.8,5.73,1.87,2.4,28.5
2015-07-19 01:38:00,0.0,2.02231,0.00069,379.109,0.053,1.2443,0.0017,140.000,45.000,34274.38662,2.04816,385.020,34.138,45.067,45.000,0.00,0.10,-272.73,-272.80,-8,991,-7,24.8,31.1,6.5,24.6,31.9,6.8,5.73,1.87,2.4,28.5
2015-07-19 01:39:00,0.0,2.02175,0.00069,379.123,0.235,1.2449,0.0024,140.001,45.000,34274.06379,2.04755,385.032,34.125,45.067,45.000,0.00,0.10,-272.74,-272.80,-8,992,-7,24.8,31.1,6.6,24.6,32.0,6.8,5.73,1.87,2.4,28.5
2015-07-19 01:40:00,0.0,2.02216,0.00058,379.329,0.175,1.2444,0.0023,139.999,45.000,34272.87935,2.04793,385.235,34.125,45.068,45.000,0.00,0.10,-272.74,-272.80,-8,991,-7,24.8,31.0,6.5,24.6,31.9,6.8,5.73,1.87,2.4,28.5
2015-07-19 01:41:00,0.0,2.02237,0.00061,379.420,0.065,1.2427,0.0023,140.001,45.000,34272.86408,2.04805,385.326,34.125,45.068,45.000,0.00,0.10,-272.73,-272.80,-8,992,-7,24.8,31.0,6.5,24.6,31.9,6.7,5.73,1.87,2.4,28.4
2015-07-19 01:42:00,0.0,2.02271,0.00057,379.495,0.073,1.2452,0.0019,140.003,45.000,34275.22933,2.04850,385.412,34.124,45.068,45.000,0.00,0.10,-272.74,-272.80,-8,992,-7,24.8,31.1,6.5,24.6,31.9,6.8,5.73,1.88,2.4,28.4
2015-07-19 01:43:00,0.0,2.02307,0.00061,379.508,0.072,1.2467,0.0020,140.000,45.000,34274.29358,2.04894,385.430,34.133,45.068,45.000,0.00,0.10,-272.74,-272.79,-8,992,-7,24.8,31.1,6.6,24.6,32.0,6.8,5.73,1.89,2.4,28.4
2015-07-19 01:44:00,0.0,2.02314,0.00052,379.558,0.093,1.2492,0.0018,140.001,45.000,34275.39705,2.04899,385.503,34.129,45.068,45.000,0.00,0.10,-272.74,-272.79,-8,991,-7,24.8,31.2,6.6,24.6,32.0,6.8,5.73,1.90,2.4,28.4
2015-07-19 01:45:00,0.0,2.02294,0.00062,379.387,0.068,1.2467,0.0018,139.999,45.000,34274.59229,2.04887,385.312,34.125,45.068,45.000,0.00,0.10,-272.74,-272.80,-8,992,-7,24.8,31.1,6.6,24.6,32.0,6.8,5.73,1.90,2.4,28.4
2015-07-19 01:46:00,0.0,2.02199,0.00057,379.236,0.121,1.2441,0.0022,140.000,45.000,34278.00598,2.04778,385.150,34.122,45.068,45.000,0.00,0.10,-272.74,-272.80,-8,991,-7,24.8,31.0,6.5,24.6,31.9,6.7,5.73,1.91,2.4,28.5
2015-07-19 01:47:00,0.0,2.02240,0.00043,379.454,0.062,1.2422,0.0018,140.002,45.000,34278.26217,2.04811,385.351,34.125,45.068,45.000,0.00,0.10,-272.73,-272.80,-8,992,-7,24.8,31.0,6.5,24.6,31.9,6.7,5.73,1.91,2.4,28.5
2015-07-19 01:48:00,0.0,2.02237,0.00063,379.681,0.049,1.2429,0.0015,139.999,45.000,34277.55624,2.04816,385.588,34.103,45.068,45.000,0.00,0.10,-272.74,-272.80,-8,992,-7,24.8,31.0,6.5,24.6,31.9,6.7,5.73,1.90,2.4,28.5